Location: Unspecified
(43.4354°N, 0.0000°E)
Time: 17:34:13
(UTC+00:00)

Transit 2A - Pass Details

Date: 23 June 2019
Orbit: 597 x 962 km, 66.7° (Epoch: 22 August)

Event Time Altitude Azimuth Distance (km) Brightness Sun altitude
Rises 06:52:00 0° 335° (NNW) 3,508 9.3 24.7°
Reaches altitude 10° 06:55:39 10° 356° (N) 2,494 8.8 25.3°
Maximum altitude 06:59:07 16° 33° (NNE) 2,018 9.0 25.9°
Drops below altitude 10° 07:02:25 10° 71° (ENE) 2,336 10.2 26.5°
Sets 07:05:39 0° 93° (E) 3,179 10.4 27.1°
